Location: Unspecified
(17.6330°N, 0.0000°E)
Time: 04:33:33
(UTC+00:00)

Courier 1B Rocket - Pass Details

Date: 30 June 2019
Orbit: 920 x 1202 km, 28.2° (Epoch: 21 July)

Event Time Altitude Azimuth Distance (km) Brightness Sun altitude
Exits shadow 01:26:04 29° 39° (NE) 1,926 6.8 -44.5°
Drops below altitude 10° 01:29:47 10° 58° (ENE) 2,961 8.0 -44.1°
Sets 01:32:38 0° 65° (ENE) 3,876 8.7 -43.7°
